Home > Weather > Baltimore > Past weeks

Flag for USA Past Weather in Baltimore, Maryland, USA — Yesterday and Last 2 Weeks

Now
78 °F

Passing clouds.


Feels Like: 80 °F
Forecast: 68 / 90 °F
Wind: 6 mph from Southeast

Location: Baltimore-Washington International Airport

Current Time: Aug 28, 2016 at 10:11:30 PM

Latest Report: Aug 28, 2016 at 8:54 PM


Visibility: 10 mi

Pressure: 30.14 "Hg

Humidity: 66%

Dew Point: 66 °F

Location of BaltimoreLocation

Past Weather in Baltimore — Graph

°F

Baltimore Temperature Yesterday

Maximum temperature yesterday: 90 °F (at 3:54 PM)
Minimum temperature yesterday: 71 °F (at 5:54 AM)
Average temperature yesterday: 80 °F

High & Low Weather Summary for the Past Weeks

 TemperatureHumidityPressure
High97 °F (Aug 14, 2:54 PM)97% (Aug 14, 11:54 PM)30.34 "Hg (Aug 14, 11:54 PM)
Low59 °F (Aug 23, 5:54 AM)40% (Aug 14, 2:54 PM)29.74 "Hg (Aug 21, 2:54 PM)
Average79 °F71%30.06 "Hg
* Reported Aug 13 8:54 PM — Aug 28 8:54 PM, Baltimore, Weather by CustomWeather, © 2016

Note: Actual official high and low records may vary slightly from our data, if they occured in-between our weather recording intervals... More about our weather records

Advertising

Baltimore Weather History for the Previous 24 Hours

Scroll right to see more
 ConditionsComfort  
Time TempWeatherWind HumidityBarometerVisibility
8:54 PM
Sun, Aug 28
78 °FPassing clouds.6 mph66%30.14 "Hg10 mi
7:54 PM80 °FPassing clouds.7 mph62%30.14 "Hg10 mi
6:54 PM84 °FPassing clouds.6 mph51%30.14 "Hg10 mi
5:54 PM86 °FPassing clouds.10 mph48%30.15 "Hg10 mi
4:54 PM86 °FPassing clouds.8 mph48%30.16 "Hg10 mi
3:54 PM86 °FPassing clouds.7 mph43%30.18 "Hg10 mi
2:54 PM86 °FScattered clouds.6 mph46%30.21 "Hg10 mi
1:54 PM86 °FScattered clouds.8 mph42%30.23 "Hg10 mi
12:54 PM85 °FScattered clouds.5 mph42%30.23 "Hg10 mi
11:54 AM83 °FScattered clouds.7 mph53%30.24 "Hg10 mi
10:54 AM80 °FScattered clouds.5 mph67%30.25 "Hg10 mi
9:54 AM79 °FScattered clouds.7 mph74%30.25 "Hg9 mi
8:54 AM77 °FScattered clouds.5 mph82%30.25 "Hg10 mi
7:54 AM73 °FScattered clouds.No wind90%30.24 "Hg10 mi
6:54 AM68 °FFog.No wind96%30.24 "Hg8 mi
5:54 AM69 °FPassing clouds.No wind96%30.21 "Hg9 mi
4:54 AM70 °FPassing clouds.No wind90%30.21 "Hg10 mi
3:54 AM73 °FPassing clouds.6 mph88%30.19 "Hg10 mi
2:54 AM73 °FClear.6 mph88%30.19 "Hg10 mi
1:54 AM73 °FClear.5 mph84%30.19 "Hg10 mi
12:54 AM73 °FClear.3 mph84%30.19 "Hg10 mi
11:54 PM
Sat, Aug 27
75 °FClear.6 mph79%30.20 "Hg10 mi
10:54 PM74 °FPassing clouds.3 mph79%30.20 "Hg10 mi
Weather by CustomWeather, © 2016

See weather overviewHow to use our weather pages